This demonstration page uses our WeatherBlox Daily Observations layout. Learn more.

Left ArrowRight Arrow

40.92945, -100.16068

Hourly Observations for November 2, 2015

Temp ( °F °C ) Dew Point ( °F °C ) Humidity (%) Winds ( mph kmh ) Pressure ( in mb ) Visibility ( mi km ) Precip ( " mm )
12:15 am 00:15 Clear 58 14.7 44 6.8 59 59 WSW 8 13 29.77 1008 10 16 N/A
12:35 am 00:35 Clear 60 15.4 44 6.6 56 56 SW 9 15 29.77 1008 10 16 N/A
12:55 am 00:55 Clear 58 14.4 44 6.4 59 59 SW 10 17 29.80 1009 10 16 N/A
1:15 am 01:15 Clear 58 14.2 44 6.5 60 60 SW 8 13 29.80 1009 10 16 N/A
1:35 am 01:35 Clear 56 13.5 44 6.5 63 63 SW 8 13 29.80 1009 10 16 N/A
1:55 am 01:55 Clear 55 12.9 43 6.2 64 64 SW 5 7 29.80 1009 10 16 N/A
2:35 am 02:35 Clear 51 10.6 42 5.7 72 72 N N/A 29.83 1010 10 16 N/A
2:55 am 02:55 Clear 47 8.2 41 4.8 79 79 N N/A 29.85 1011 10 16 N/A
3:15 am 03:15 Clear 47 8.1 41 5.1 82 82 NE 3 6 29.85 1011 10 16 N/A
3:35 am 03:35 Clear 48 8.8 41 5.2 78 78 N N/A 29.83 1010 10 16 N/A
3:55 am 03:55 Clear 45 7 40 4.2 83 83 N N/A 29.85 1011 10 16 N/A
4:15 am 04:15 Clear 42 5.7 39 3.8 88 88 N 3 6 29.85 1011 10 16 N/A
4:35 am 04:35 Clear 41 5.2 38 3.2 87 87 NW 7 11 29.88 1012 10 16 N/A
4:55 am 04:55 Clear 42 5.5 38 3.6 88 88 W 6 9 29.85 1011 10 16 N/A
5:15 am 05:15 Clear 42 5.7 38 3.5 86 86 N N/A 29.85 1011 10 16 N/A
5:35 am 05:35 Clear 42 5.6 39 3.7 88 88 W 3 6 29.85 1011 10 16 N/A
5:55 am 05:55 Clear 41 5.1 38 3.2 88 88 WNW 6 9 29.88 1012 10 16 N/A
6:15 am 06:15 Clear 40 4.6 38 3.1 90 90 WNW 7 11 29.88 1012 10 16 N/A
6:35 am 06:35 Clear 41 4.9 38 3.1 88 88 WNW 5 7 29.88 1012 10 16 N/A
6:55 am 06:55 Clear 40 4.6 37 2.8 88 88 WSW 3 6 29.88 1012 10 16 N/A
7:15 am 07:15 Sunny 42 5.5 38 3.3 86 86 SSW 3 6 29.85 1011 10 16 N/A
7:35 am 07:35 Sunny 40 4.6 37 2.9 89 89 SW 3 6 29.91 1013 10 16 N/A
7:55 am 07:55 Sunny 41 5.1 38 3.5 90 90 WSW 3 6 29.91 1013 10 16 N/A
8:15 am 08:15 Sunny 46 7.6 43 6.1 90 90 N N/A 29.88 1012 10 16 N/A
8:35 am 08:35 Sunny 49 9.6 43 6.3 80 80 W 3 6 29.88 1012 10 16 N/A
8:55 am 08:55 Sunny 51 10.7 43 6.1 73 73 N N/A 29.88 1012 10 16 N/A
9:15 am 09:15 Sunny 53 11.6 43 6.2 70 70 N N/A 29.85 1011 10 16 N/A
9:35 am 09:35 Sunny 56 13.2 45 7.3 68 68 N N/A 29.85 1011 10 16 N/A
9:55 am 09:55 Sunny 59 14.8 47 8.2 65 65 N N/A 29.85 1011 10 16 N/A
10:15 am 10:15 Sunny 60 15.8 47 8.6 63 63 N N/A 29.83 1010 10 16 N/A
10:35 am 10:35 Sunny 63 17 47 8.2 56 56 N N/A 29.83 1010 10 16 N/A
10:55 am 10:55 Sunny 64 17.9 46 7.5 51 51 N N/A 29.83 1010 10 16 N/A
11:15 am 11:15 Sunny 67 19.5 46 7.7 47 47 N N/A 29.80 1009 10 16 N/A
11:35 am 11:35 Sunny 69 20.8 45 7.3 42 42 ESE 3 6 29.80 1009 10 16 N/A
11:55 am 11:55 Sunny 71 21.6 45 7.3 40 40 SE 5 7 29.74 1007 10 16 N/A
12:15 pm 12:15 Sunny 73 22.5 45 7.2 37 37 ESE 6 9 29.74 1007 10 16 N/A
12:35 pm 12:35 Sunny 74 23.4 43 6 33 33 ESE 7 11 29.71 1006 10 16 N/A
12:55 pm 12:55 Sunny 75 23.8 44 6.6 33 33 E 8 13 29.71 1006 10 16 N/A
1:15 pm 13:15 Sunny 76 24.5 43 5.9 30 30 SSE 7 11 29.71 1006 10 16 N/A
1:35 pm 13:35 Sunny 77 25 42 5.3 28 28 S 9 15 29.65 1004 10 16 N/A
1:55 pm 13:55 Sunny 77 25 42 5.6 29 29 S 7 11 29.65 1004 10 16 N/A
2:15 pm 14:15 Sunny 77 24.8 41 5.2 28 28 SSE 9 15 29.65 1004 10 16 N/A
2:35 pm 14:35 Sunny 77 25 40 4.7 27 27 S 10 17 29.65 1004 10 16 N/A
2:55 pm 14:55 Sunny 76 24.7 41 5.2 28 28 SSE 12 19 29.65 1004 10 16 N/A
3:15 pm 15:15 Sunny 75 24 41 5.1 30 30 SSE 10 17 29.68 1005 10 16 N/A
3:35 pm 15:35 Sunny 75 24 42 5.8 31 31 S 9 15 29.68 1005 10 16 N/A
3:55 pm 15:55 Sunny 75 23.7 42 5.3 30 30 S 14 22 29.68 1005 10 16 N/A
4:15 pm 16:15 Sunny 74 23.2 42 5.6 32 32 SSE 14 22 29.68 1005 10 16 N/A
4:35 pm 16:35 Sunny 72 22.2 44 6.6 37 37 SSE 10 17 29.68 1005 10 16 N/A
4:55 pm 16:55 Sunny 70 21.1 44 6.7 39 39 SSE 10 17 29.71 1006 10 16 N/A
5:15 pm 17:15 Sunny 68 19.9 44 6.8 43 43 SE 7 11 29.71 1006 10 16 N/A
5:35 pm 17:35 Clear 65 18.5 44 6.9 47 47 ESE 6 9 29.71 1006 10 16 N/A
5:55 pm 17:55 Clear 59 15.1 46 7.5 61 61 E 7 11 29.74 1007 10 16 N/A
6:15 pm 18:15 Clear 58 14.6 45 7.3 62 62 ESE 7 11 29.74 1007 10 16 N/A
6:35 pm 18:35 Clear 62 16.4 45 7 54 54 SE 9 15 29.77 1008 10 16 N/A
6:55 pm 18:55 Clear 62 16.7 44 6.4 51 51 SE 10 17 29.77 1008 10 16 N/A
7:15 pm 19:15 Clear 61 16.1 43 6.3 52 52 SE 9 15 29.77 1008 10 16 N/A
7:35 pm 19:35 Clear 60 15.6 43 6.3 54 54 SE 10 17 29.74 1007 10 16 N/A
7:55 pm 19:55 Clear 61 16.1 43 6 51 51 SE 10 17 29.77 1008 10 16 N/A
8:15 pm 20:15 Clear 59 15.1 43 6 55 55 SE 9 15 29.77 1008 10 16 N/A
8:35 pm 20:35 Clear 55 12.8 43 6.1 64 64 ESE 8 13 29.80 1009 10 16 N/A
8:55 pm 20:55 Clear 55 12.8 43 6.2 64 64 SE 7 11 29.80 1009 10 16 N/A
9:15 pm 21:15 Clear 54 12.1 43 6 67 67 SE 7 11 29.80 1009 10 16 N/A
9:35 pm 21:35 Clear 53 11.5 43 5.9 69 69 SSE 6 9 29.80 1009 10 16 N/A
9:55 pm 21:55 Clear 55 12.7 44 6.5 66 66 SSE 10 17 29.80 1009 10 16 N/A
10:15 pm 22:15 Clear 56 13.2 44 6.6 65 65 SSE 12 19 29.80 1009 10 16 N/A
10:35 pm 22:35 Clear 56 13.5 45 7.1 65 65 SSE 12 19 29.80 1009 10 16 N/A
10:55 pm 22:55 Clear 57 14 46 7.7 66 66 SSE 12 19 29.80 1009 10 16 N/A
11:15 pm 23:15 Clear 56 13.6 46 8 69 69 SSE 10 17 29.80 1009 10 16 N/A
11:35 pm 23:35 Clear 56 13.3 47 8.1 71 71 SSE 10 17 29.80 1009 10 16 N/A
11:55 pm 23:55 Clear 55 12.6 47 8.1 74 74 SSE 9 15 29.77 1008 10 16 N/A

Powered by AerisWeather